RH
10 11 11 11 11 12 12 13 13 13 14 14 15 16 16 16 17 17 17 16 16 16 18 17 17 17 18 17 16 16 16 14 14 14 14 14 14 14 14 14 15 15 14 14 13 13 12 11 12 13 15 16 16 17 18 19 21 22 24 25 25 26 27 30 48 70 87 94 96 95 93 91 90 91 94 82 75 74 76 85 87 84 79 71 74 78 72 72 74 76 77 71 65 59 52 46 41 38 37 33 33 33 32
13 13 13 13 14 14 15 15 16 15 16 17 18 19 19 20 19 19 18 18 17 17 16 16 16 16 18 17 18 18 18 16 15 15 15 15 15 15 15 15 15 15 16 17 17 17 17 16 16 16 17 18 18 18 20 23 25 26 27 27 27 27 27 27 34 49 72 88 95 96 94 94 92 90 93 85 82 78 70 77 78 75 73 68 70 71 62 64 71 78 82 81 79 77 72 62 53 46 42 37 35 35 33
17 17 17 17 17 17 18 19 19 19 19 20 20 21 21 22 22 22 22 21 20 19 18 18 17 17 16 17 18 18 19 19 19 18 19 19 20 20 20 20 20 21 21 22 23 23 22 21 20 20 20 20 20 20 22 26 29 30 29 28 28 27 27 26 26 34 53 77 89 93 94 95 95 94 94 91 88 83 76 74 71 71 75 73 72 70 64 62 62 64 68 74 78 81 86 82 75 65 57 48 42 39 37
22 22 22 22 21 22 22 23 23 23 23 23 23 23 23 23 23 24 24 24 23 22 21 21 20 20 18 18 19 19 20 21 21 21 22 23 23 24 24 25 25 25 25 25 26 26 25 24 24 24 23 22 21 21 21 26 28 29 29 27 26 26 26 26 26 28 37 60 82 97 97 94 94 96 94 94 91 86 84 84 79 71 66 72 73 73 73 74 69 63 58 60 62 68 79 82 85 85 75 64 56 51 46
26 25 25 24 24 24 24 25 25 25 25 24 24 24 24 24 24 26 27 28 29 29 28 25 23 22 21 21 21 21 21 21 21 22 22 23 24 24 25 25 25 25 25 25 25 25 25 24 24 24 23 23 23 23 23 26 27 28 27 26 26 26 26 27 27 30 35 57 79 94 94 93 95 97 97 95 92 87 83 86 79 70 68 72 72 72 75 79 77 72 65 60 57 57 62 64 72 80 80 79 79 75 62
26 25 24 24 24 24 25 25 24 24 24 23 24 24 24 25 26 29 34 32 32 32 31 29 26 24 24 24 25 25 25 24 24 24 24 25 25 25 25 25 25 25 25 25 25 25 25 25 25 24 25 25 26 26 27 29 30 29 29 28 28 28 29 29 32 38 47 64 81 92 90 92 92 91 92 89 84 80 78 81 73 66 68 71 70 70 77 81 79 75 67 66 67 66 61 57 57 60 64 77 82 82 82
24 23 22 22 22 23 23 23 23 23 23 23 23 23 24 27 28 30 35 33 30 29 30 28 27 26 25 26 26 27 28 29 29 29 29 29 29 28 28 27 27 27 27 28 28 29 29 29 29 29 30 30 30 31 32 32 32 32 32 32 32 32 32 33 38 46 56 69 79 86 87 89 91 91 83 79 76 73 69 65 60 58 60 63 64 66 71 73 73 71 71 66 68 73 75 72 65 57 55 60 64 72 84
22 21 21 21 21 21 21 22 23 24 25 26 26 27 27 31 32 32 35 34 33 34 33 31 29 28 27 27 27 28 29 30 30 31 32 32 32 31 31 31 31 32 32 33 33 34 34 35 35 35 34 33 33 33 33 33 32 32 32 32 33 33 33 35 40 50 63 71 76 78 76 78 80 79 70 64 58 54 52 50 50 51 52 54 55 55 57 64 68 68 65 65 67 71 73 77 77 72 61 58 60 66 74
22 22 22 22 24 25 27 28 30 32 33 33 33 34 34 37 38 38 38 38 37 37 36 35 34 33 32 32 32 32 33 33 33 33 34 34 33 33 33 33 33 33 34 34 35 35 36 37 37 36 35 33 32 31 31 30 30 29 30 31 31 31 31 33 37 45 58 62 66 67 64 64 63 60 54 48 44 43 43 43 44 45 46 47 48 50 49 54 61 65 61 65 69 73 76 72 71 72 74 71 69 68 66
24 24 25 27 30 32 35 38 40 41 42 42 42 42 42 43 43 44 43 43 42 40 39 38 37 37 37 38 38 38 39 38 38 38 38 37 35 34 33 33 32 32 32 33 33 34 34 35 35 34 31 29 28 27 27 27 27 27 28 28 28 28 28 29 31 36 42 48 55 59 53 56 53 47 41 38 37 38 40 44 48 48 43 42 42 43 44 48 53 58 60 65 69 71 73 74 77 80 82 81 82 84 83
25 26 28 31 34 37 41 44 46 48 48 49 49 49 49 49 49 48 48 47 46 44 42 41 40 40 40 41 42 42 43 42 42 43 44 41 38 35 33 32 31 31 31 32 31 31 32 31 30 28 26 26 25 25 24 24 24 25 25 26 26 26 26 26 27 29 31 39 45 49 48 50 45 36 31 32 34 37 43 53 56 52 42 39 39 40 42 47 52 58 61 68 72 74 73 78 82 84 83 80 82 85 89
26 28 29 32 36 41 46 49 50 51 51 52 53 53 53 53 53 53 52 51 50 49 47 45 43 42 42 42 43 44 45 44 45 46 47 43 38 35 32 30 30 30 31 31 29 28 27 26 25 24 24 24 24 24 22 21 22 23 23 23 23 24 25 25 26 27 26 35 43 47 44 40 34 29 27 28 30 33 38 46 49 46 37 36 37 40 45 51 59 66 70 72 77 82 81 82 84 85 85 81 86 90 87
27 28 29 33 38 44 50 52 54 54 54 54 56 57 57 57 57 57 57 55 54 53 52 50 47 45 44 44 45 45 46 46 47 48 48 43 38 34 30 29 28 29 29 28 26 24 23 22 22 23 24 23 23 23 22 20 20 20 20 20 21 21 23 23 24 24 22 25 30 35 37 33 29 25 22 24 25 27 28 31 32 32 33 34 37 42 50 59 68 76 81 81 85 90 90 90 90 90 92 89 90 91 90
28 30 32 36 42 48 54 56 56 57 56 57 59 60 60 59 60 60 60 59 58 57 56 53 51 49 47 47 47 47 48 48 49 49 46 42 37 33 29 28 27 27 26 25 24 22 21 21 22 23 23 22 22 22 21 20 19 18 18 18 18 19 22 22 21 21 19 21 24 26 27 25 21 19 18 19 21 22 22 23 24 26 30 32 36 43 53 64 74 82 85 86 90 93 94 94 92 92 96 95 95 96 96
40 41 42 45 49 53 58 59 60 60 60 61 63 64 63 62 63 63 62 61 61 60 58 55 53 51 50 49 49 49 49 50 50 49 43 39 35 31 28 28 27 26 25 23 22 21 21 21 22 22 22 21 21 20 19 18 18 17 17 17 17 17 19 20 20 19 17 18 19 20 20 18 16 16 16 16 17 18 18 18 19 21 26 30 33 39 52 60 64 68 74 80 84 85 89 92 93 94 95 96 97 97 97
59 58 57 57 58 60 62 63 64 64 64 65 67 68 66 66 67 68 66 65 63 62 60 57 54 52 51 51 51 51 51 52 50 46 39 36 33 31 28 27 26 25 24 23 22 21 21 21 22 22 22 21 20 19 17 17 16 16 16 15 15 15 17 18 19 18 15 15 16 16 16 15 14 14 15 15 15 16 16 16 16 17 20 25 28 33 43 46 50 53 56 66 68 69 75 81 84 85 90 92 94 95 96
70 68 65 63 63 64 66 67 68 68 68 68 69 70 69 69 70 72 71 68 66 64 60 57 55 54 53 53 53 53 53 52 48 43 37 35 34 32 30 28 26 25 23 22 21 20 20 21 21 22 21 21 19 18 16 15 15 15 14 14 14 15 17 18 18 17 14 14 14 14 13 13 14 14 14 14 15 15 16 16 16 17 18 19 23 28 31 33 37 41 44 50 53 55 58 67 69 71 77 82 85 89 93
74 72 69 67 67 68 70 71 70 70 71 70 71 71 71 71 73 74 74 71 69 66 62 59 58 57 56 57 56 55 53 51 47 43 40 39 37 35 32 29 26 24 22 20 19 19 19 19 20 21 21 20 19 17 15 14 14 14 13 13 13 14 17 18 18 16 13 13 13 12 12 12 12 13 14 14 14 15 16 16 17 17 18 18 22 26 29 31 34 38 41 40 41 43 49 58 60 60 64 69 73 77 83
77 77 76 73 71 71 73 73 72 72 72 72 73 73 73 73 74 75 76 74 72 69 65 63 62 61 61 60 58 57 55 53 51 48 46 44 42 38 35 30 26 23 21 19 18 18 18 19 19 19 19 19 17 16 14 13 13 13 13 13 13 13 15 17 17 16 12 12 12 12 11 11 11 12 12 13 14 15 15 17 18 19 21 22 25 29 33 36 39 43 46 47 48 50 56 54 55 58 60 64 67 68 71
80 82 81 78 76 75 77 76 74 73 74 75 77 77 76 74 75 76 77 75 74 73 69 68 66 65 64 62 60 60 59 57 55 53 50 47 42 38 34 30 26 23 21 20 19 18 18 19 20 19 18 17 16 14 12 12 12 12 12 12 12 12 13 15 15 14 11 11 11 11 11 10 10 10 11 11 13 15 14 16 19 22 27 29 33 36 40 44 50 53 52 51 55 60 60 51 50 54 58 64 67 68 68
81 83 83 80 77 77 79 78 76 75 75 77 81 82 81 76 76 77 78 75 74 74 73 73 71 68 67 66 65 63 62 61 59 57 53 48 42 37 33 30 27 25 23 22 21 20 19 19 19 19 18 16 14 12 11 11 11 11 11 11 12 12 12 12 12 11 11 10 10 10 10 10 10 10 10 10 13 15 14 15 19 25 33 35 39 42 45 44 46 48 46 40 40 41 39 37 38 41 47 54 58 61 65
81 82 82 80 78 78 80 78 77 76 76 78 82 85 85 78 76 77 79 77 74 73 74 78 76 72 69 69 68 67 65 64 63 60 56 51 45 40 35 31 29 27 26 24 22 20 18 18 18 18 18 16 13 11 10 10 10 10 10 11 11 12 12 11 11 10 10 10 10 10 9 9 9 9 9 10 11 13 14 15 19 27 36 37 39 41 41 36 33 31 29 25 22 21 22 24 27 30 34 39 44 49 55
80 81 81 79 77 77 79 78 78 78 79 81 83 85 86 81 78 77 78 77 74 71 74 82 81 76 71 70 70 69 67 66 64 62 59 54 49 43 38 32 29 27 27 25 23 20 18 18 18 18 18 16 13 11 10 9 8 9 10 11 11 12 11 11 11 10 10 9 9 9 9 9 9 8 8 10 10 12 14 16 21 28 34 34 34 32 29 25 22 19 18 16 15 15 17 20 22 25 28 32 36 41 50
80 81 80 79 77 76 77 79 80 82 82 84 85 86 86 82 79 77 77 75 72 71 76 84 84 79 74 72 71 70 68 66 64 62 61 58 53 46 39 32 28 26 25 23 21 18 18 18 18 18 18 15 12 10 10 9 8 8 9 10 11 12 11 11 10 10 10 9 9 9 8 8 8 8 8 10 12 13 16 19 23 28 32 31 28 25 20 17 15 13 13 12 12 13 15 17 19 22 26 29 32 35 43
80 81 80 78 76 76 77 79 82 83 84 86 88 90 89 83 79 78 76 74 72 73 79 84 84 81 77 74 72 70 68 65 63 62 61 59 55 48 39 30 24 21 20 18 17 16 16 18 18 18 17 14 12 10 10 9 8 7 8 10 11 12 12 11 10 10 10 9 9 8 8 8 8 8 10 12 13 14 16 20 23 26 29 28 25 21 17 14 12 11 12 11 11 11 13 14 17 21 24 25 26 28 30
82 82 80 78 77 76 78 79 81 83 83 86 91 95 93 85 79 76 74 74 73 75 80 83 83 80 78 74 71 69 67 65 63 61 58 53 49 43 33 23 18 15 14 13 13 13 15 16 16 16 14 12 11 10 9 8 7 7 8 10 11 12 11 10 10 10 9 9 8 8 8 8 8 9 13 13 13 13 13 16 19 23 27 26 23 19 15 12 12 13 14 13 12 12 13 15 17 20 22 22 23 24 25
84 83 80 78 78 79 80 81 83 83 80 85 93 98 95 85 78 74 70 70 70 70 74 76 77 76 73 70 68 67 65 63 60 56 50 43 36 29 21 15 12 11 10 10 10 12 13 13 13 12 11 10 9 9 8 7 7 7 8 10 11 11 11 10 10 9 9 8 8 8 8 8 9 11 14 15 13 11 11 12 15 17 20 22 20 17 13 11 11 12 14 13 12 12 13 16 17 18 19 21 22 23 24
86 84 81 80 82 85 88 89 89 87 80 86 93 98 95 87 78 72 69 68 63 60 61 66 68 68 66 65 64 62 59 57 52 46 39 32 24 17 12 10 9 9 9 8 9 9 10 10 9 9 9 8 8 7 7 7 6 7 8 9 10 10 10 9 9 9 8 8 8 8 8 8 9 10 11 11 10 10 10 13 15 16 17 17 17 15 12 10 11 12 13 12 11 11 11 13 14 15 17 19 20 21 22
87 85 82 83 87 92 95 95 95 92 85 89 95 98 94 86 79 73 71 69 63 56 53 56 58 59 60 59 57 54 49 44 39 34 28 21 15 10 8 8 7 7 7 7 7 6 6 7 7 7 7 7 7 6 6 6 6 6 8 9 9 9 9 9 9 8 8 8 8 9 9 9 9 9 9 9 9 9 9 11 12 14 16 16 15 13 11 11 11 12 12 11 11 11 10 10 11 12 14 16 17 18 19
89 86 84 85 89 94 95 96 96 95 90 93 96 97 92 85 79 75 73 68 60 52 48 49 50 51 53 51 47 42 36 32 29 25 19 13 9 7 7 7 6 6 6 6 5 5 5 6 6 6 6 6 6 6 6 6 6 6 7 8 8 8 8 8 8 8 8 8 9 9 9 9 9 9 9 9 9 9 8 8 9 11 14 15 13 12 12 12 11 11 11 11 10 10 10 9 9 10 13 15 15 15 16
89 86 84 84 88 93 95 95 96 95 91 93 94 93 86 80 77 74 69 59 51 45 45 45 45 45 44 38 33 28 24 23 20 16 10 8 6 6 6 6 5 5 5 5 5 5 5 5 5 5 5 5 5 5 5 5 5 6 7 7 7 7 8 8 9 9 9 9 9 9 9 9 9 9 9 9 9 8 8 8 8 9 12 12 11 10 11 11 11 10 10 10 9 9 9 9 9 10 13 15 15 16 16
88 86 83 84 88 92 94 95 96 95 94 95 92 85 77 74 74 71 63 51 43 39 41 42 42 39 34 27 22 20 18 16 12 9 7 6 6 6 5 5 5 5 5 5 5 5 5 5 4 4 4 4 4 4 5 5 5 5 6 6 6 7 8 9 9 9 9 9 9 9 9 9 9 8 8 8 8 8 8 8 7 7 8 9 9 9 10 9 9 9 10 9 9 9 10 10 13 15 16 16 17 18 17
87 84 82 85 90 93 95 95 96 96 96 96 90 81 69 69 69 67 58 45 37 33 34 37 36 33 26 21 18 16 13 9 7 7 7 6 6 5 5 5 5 5 5 5 4 4 4 4 4 4 4 4 4 4 4 5 5 5 5 6 7 8 9 9 9 9 9 9 9 9 8 8 8 8 8 8 8 8 8 7 7 7 6 6 7 8 8 8 8 8 9 9 9 10 11 12 15 17 18 18 18 19 19
85 81 80 85 91 95 97 96 96 96 97 95 87 75 64 65 65 62 52 42 33 27 26 26 26 23 20 17 13 10 7 6 6 6 6 6 5 5 5 5 5 5 5 5 4 4 4 4 4 4 4 4 4 4 5 5 5 5 5 6 7 8 8 9 9 9 8 8 8 8 8 8 8 8 8 8 8 7 7 7 7 7 6 6 6 6 6 6 6 7 8 10 12 13 15 17 18 19 20 23 23 22 25
82 79 79 85 91 95 97 96 96 96 96 92 82 70 62 64 62 57 47 38 30 24 18 16 16 15 14 12 9 7 6 6 6 6 6 5 5 6 6 6 6 5 5 5 5 5 4 5 5 5 5 5 5 5 5 5 5 6 6 7 8 8 8 8 8 8 8 8 8 8 8 8 8 8 8 8 8 8 7 7 7 7 7 6 6 6 6 6 7 8 10 16 19 20 21 23 24 25 26 27 28 28 29
80 78 79 85 90 94 95 95 95 95 94 86 75 66 64 62 57 50 41 34 27 21 14 12 11 10 9 8 7 6 6 6 6 6 6 6 7 7 7 7 7 6 6 6 6 6 6 6 6 6 5 5 6 6 6 6 6 7 7 8 8 8 8 9 9 9 9 9 9 9 9 9 9 8 8 8 8 8 8 8 8 8 8 7 7 7 6 7 9 12 16 23 25 26 28 29 30 31 34 33 34 35 35
78 78 80 85 89 92 93 94 94 92 88 78 71 66 63 57 50 42 35 28 21 16 11 10 8 8 8 7 7 7 6 6 6 7 7 8 8 8 8 8 8 8 7 7 7 7 7 7 7 7 7 7 7 7 7 7 8 8 8 8 8 9 9 9 10 10 10 10 10 10 10 10 9 9 9 9 9 10 10 10 9 9 9 8 8 8 7 10 12 15 21 25 27 29 30 32 34 36 39 39 39 40 41
77 78 81 85 89 92 94 94 91 86 79 73 68 64 58 50 42 34 27 21 16 12 9 8 8 8 8 8 8 7 7 7 8 9 10 10 10 10 10 10 10 9 9 9 9 9 9 9 8 8 8 8 8 8 8 8 9 9 9 9 9 9 9 10 10 11 11 11 10 10 10 10 10 10 10 10 11 11 11 10 10 10 9 9 9 9 9 12 13 15 19 22 24 25 27 30 34 38 41 46 48 48 47
77 78 81 86 90 93 95 93 87 79 73 70 65 59 51 43 35 26 19 15 12 9 8 8 9 9 9 9 9 9 9 10 11 12 13 13 13 13 12 12 12 12 12 11 11 11 10 10 10 10 9 8 8 9 10 10 10 10 10 10 9 10 10 10 11 11 11 10 10 10 9 10 10 10 11 11 11 11 11 10 10 10 10 10 10 10 11 12 13 14 15 16 17 19 21 25 30 36 43 54 57 56 55
77 79 83 88 91 94 95 91 84 76 72 68 61 53 43 34 26 19 14 11 9 8 8 9 10 10 11 11 11 11 12 13 14 16 16 16 16 16 15 15 14 14 14 13 13 12 12 12 11 10 10 10 10 11 12 12 12 11 10 10 10 10 11 11 11 11 10 10 9 9 9 9 10 10 11 11 11 11 11 10 10 10 10 10 10 10 10 11 12 12 13 13 14 15 17 21 27 34 42 53 58 60 63
77 81 87 90 92 92 93 88 82 75 72 66 58 47 35 26 19 15 12 10 9 9 10 11 12 13 14 14 14 15 15 17 18 19 19 19 19 18 18 17 17 16 15 14 14 14 14 13 13 12 12 12 13 13 14 13 12 12 11 11 11 11 12 12 12 11 10 10 9 9 9 9 10 10 11 11 11 11 10 10 10 11 11 11 11 11 11 11 11 11 11 11 12 13 15 19 25 32 40 50 59 67 73
79 84 90 93 93 91 90 86 80 75 71 64 53 40 27 20 16 13 11 10 10 11 13 15 16 17 18 17 17 18 19 20 21 22 22 22 21 21 20 19 18 18 16 15 16 16 16 15 15 15 15 15 15 15 15 14 13 12 12 12 12 12 12 12 12 12 11 10 10 9 9 10 10 11 11 11 11 10 10 10 11 11 12 12 12 12 11 11 10 10 10 10 11 12 14 18 23 30 38 48 60 71 75
81 85 90 93 93 92 90 86 80 75 70 61 48 33 21 17 14 13 12 11 13 16 18 20 21 21 21 21 20 20 22 23 24 24 24 24 23 22 22 21 21 19 18 17 17 18 18 17 17 17 18 17 17 16 15 14 13 14 14 14 14 13 13 13 13 12 12 11 11 10 10 10 10 11 11 10 10 10 10 10 11 11 12 12 12 12 12 11 11 10 10 10 10 11 13 16 21 27 35 45 56 64 67
83 86 89 92 92 92 90 85 78 71 65 54 40 26 18 15 14 13 14 15 18 20 23 24 25 25 25 24 24 23 24 25 26 26 26 25 25 24 24 23 23 21 20 19 19 21 21 20 20 20 19 18 17 16 15 14 15 15 16 16 16 15 15 15 14 14 13 13 12 11 10 10 10 10 10 10 9 9 9 10 10 11 12 12 12 12 12 11 11 10 10 10 10 10 12 14 18 22 27 35 43 50 54
86 87 88 90 91 90 88 81 73 65 56 44 32 21 16 15 15 15 17 19 22 25 26 27 28 29 29 28 27 26 26 27 27 27 27 26 26 25 25 25 24 23 22 21 22 23 24 23 23 22 20 19 18 17 16 16 16 17 18 18 18 17 17 17 16 15 15 15 14 13 12 12 11 11 10 10 9 8 8 9 10 10 11 12 12 12 11 11 11 10 10 10 10 10 11 13 15 17 20 24 29 35 42
87 87 87 88 88 86 82 73 64 55 45 34 25 18 16 16 17 18 20 24 27 29 30 31 32 33 33 33 32 31 30 30 30 29 29 28 27 26 26 26 25 25 23 22 24 26 26 25 24 22 21 20 19 18 18 17 18 18 18 19 19 19 20 19 18 18 18 17 16 15 15 14 13 12 11 10 9 9 9 9 10 10 11 11 11 11 11 11 11 11 11 11 11 10 10 11 12 14 15 18 22 27 35
89 87 86 86 85 81 73 63 53 44 34 26 20 18 18 18 19 20 23 27 29 32 33 34 35 35 36 36 35 35 34 33 32 31 30 29 28 27 27 27 27 26 24 23 25 26 26 25 23 21 19 19 19 19 19 19 19 18 18 19 19 20 21 21 21 20 19 18 18 17 17 16 15 13 12 11 11 10 10 10 11 11 12 12 11 11 11 12 12 12 12 12 12 11 11 11 11 12 13 15 19 25 32
90 88 86 86 83 77 66 54 44 35 26 21 19 19 19 19 20 22 25 29 31 33 36 37 37 38 38 37 37 36 36 36 34 33 32 30 29 28 28 28 28 27 26 25 26 27 26 25 23 21 19 19 18 19 19 20 19 19 18 18 19 19 21 22 22 21 19 19 19 18 18 17 16 14 13 13 12 12 12 12 13 13 13 12 12 12 12 12 13 13 13 13 13 13 12 12 12 11 12 14 17 21 28
90 88 86 87 85 77 62 47 37 29 23 20 19 20 20 20 21 23 26 30 33 35 38 38 38 39 39 39 38 38 37 37 36 34 33 31 30 28 29 29 29 28 27 27 28 29 28 26 25 23 21 19 19 19 20 20 20 19 18 18 17 17 18 20 20 20 18 18 18 18 17 16 15 15 15 14 14 15 15 15 15 14 14 13 13 12 12 13 14 15 15 15 14 14 14 14 13 12 12 13 15 21 36
89 87 85 86 87 80 62 43 32 26 22 21 21 21 21 21 21 23 26 31 34 37 38 38 39 39 39 39 39 39 38 38 36 35 34 34 32 30 30 31 30 29 28 28 29 30 29 27 26 24 23 21 20 20 20 20 20 20 19 18 17 16 16 17 18 18 18 18 18 17 16 15 15 15 15 16 17 17 18 17 17 16 15 14 13 13 12 13 14 15 16 16 16 16 16 15 15 14 13 13 13 22 47
89 87 84 85 87 84 66 42 29 24 22 22 22 23 23 22 22 24 28 32 35 37 38 39 39 39 39 39 40 40 39 38 37 36 36 35 34 33 32 32 31 30 29 29 30 31 30 28 26 25 23 22 22 21 21 21 21 20 20 19 17 16 16 16 17 17 17 17 16 15 14 14 14 15 16 17 18 18 18 18 17 16 15 14 13 13 13 13 15 16 16 17 17 17 17 17 16 16 15 13 14 23 48
88 86 83 83 87 86 72 45 30 23 23 23 24 25 25 25 25 27 30 33 36 38 38 39 40 40 40 40 40 40 40 39 38 36 35 36 35 34 33 33 32 30 29 29 30 32 32 29 27 26 24 23 23 23 22 22 22 21 21 19 18 17 16 16 16 16 16 15 14 13 12 13 13 14 15 16 17 17 17 17 16 16 15 14 13 13 13 14 15 16 17 17 17 18 18 18 17 17 16 14 16 29 58
86 85 82 81 85 87 80 51 33 24 23 24 25 26 27 27 28 29 32 35 36 38 38 39 39 40 40 40 40 40 40 39 38 38 38 37 36 35 34 34 33 31 29 26 26 27 30 26 25 25 24 24 24 24 24 24 23 23 22 20 19 18 17 16 15 14 13 12 11 11 11 11 12 13 14 15 15 16 15 15 15 14 14 13 13 13 14 15 15 16 17 18 18 18 18 18 18 18 16 14 21 38 67
86 84 80 78 82 86 86 58 37 24 23 25 26 27 29 30 30 31 33 35 36 37 38 38 39 40 40 40 41 41 41 40 39 38 38 39 37 35 34 34 34 33 31 27 24 23 23 25 25 23 24 25 26 26 26 26 25 25 23 21 20 18 17 16 14 12 10 9 9 9 10 10 11 11 12 13 13 13 13 13 12 12 12 13 13 14 14 15 16 17 18 18 18 18 18 19 18 18 17 17 26 42 64
86 84 80 77 79 83 88 66 43 26 23 25 27 28 30 31 32 33 34 35 36 37 37 38 39 41 41 41 41 41 41 40 40 39 38 38 38 36 35 34 34 32 29 26 26 27 25 28 29 28 27 28 28 28 28 28 27 26 25 23 21 19 17 15 13 11 9 9 9 9 9 9 10 10 10 11 11 11 11 11 11 11 11 12 13 14 15 16 17 18 19 19 19 19 19 19 19 19 18 20 30 44 63
87 84 81 78 77 80 87 73 51 30 23 26 27 29 30 31 32 33 34 35 35 36 37 37 39 41 41 41 41 41 41 41 40 39 39 39 39 38 38 36 33 30 24 25 26 28 30 32 31 29 30 31 31 30 30 30 29 28 27 25 23 20 18 15 13 11 10 10 10 9 9 9 9 9 9 9 9 9 9 10 10 10 11 12 13 14 15 16 17 18 19 20 20 20 20 20 20 20 21 25 32 43 58
88 85 82 79 77 79 86 79 58 36 24 26 28 30 31 32 32 33 34 34 35 36 37 37 39 40 41 41 41 41 41 42 41 40 40 39 39 38 38 37 36 34 33 31 31 31 32 33 31 29 29 31 31 31 31 32 31 30 29 27 25 23 20 18 15 13 12 12 11 10 10 9 9 8 8 8 8 8 8 9 9 10 11 12 13 14 15 16 18 19 20 20 21 21 21 21 21 22 24 28 34 41 47
89 86 83 80 78 79 84 81 64 43 27 26 28 30 31 32 33 33 34 34 35 36 37 38 39 40 40 41 41 41 41 42 42 41 40 40 39 38 38 38 39 39 38 37 36 35 34 33 32 30 30 30 31 31 32 33 33 32 31 29 27 25 23 21 18 16 15 13 12 11 10 10 9 8 8 7 7 7 8 8 9 10 10 11 12 14 15 16 18 19 20 21 21 22 22 22 23 24 27 30 35 39 42
90 87 83 81 79 80 83 82 69 50 31 28 28 30 32 32 33 33 34 35 35 35 36 38 39 40 40 40 41 41 41 42 42 42 41 41 39 38 38 38 38 38 38 40 39 38 36 34 33 32 32 30 30 31 34 34 34 33 32 31 29 28 26 24 21 19 17 16 14 12 11 10 9 8 8 7 7 7 8 8 9 10 10 11 12 13 14 16 17 18 20 21 22 24 24 25 26 27 30 33 35 36 38
90 87 84 81 80 80 83 83 74 58 39 31 29 31 32 33 33 34 34 35 35 35 36 37 39 39 40 40 41 41 41 42 42 42 41 41 40 39 39 39 39 39 40 39 39 39 38 36 35 33 32 30 30 31 33 34 35 34 33 31 31 30 28 26 23 21 19 17 15 13 12 10 9 9 8 8 8 8 8 9 9 10 10 11 12 12 14 15 17 18 20 22 24 26 27 28 29 31 33 34 35 36 36
91 88 84 80 79 80 83 84 77 65 48 36 32 31 33 33 34 34 35 35 35 35 36 37 38 39 39 40 40 41 41 41 42 42 42 41 41 41 40 40 40 40 40 40 40 39 38 37 36 34 32 31 31 32 34 36 36 35 32 31 31 30 29 27 25 23 21 19 17 15 13 11 10 9 9 9 8 9 9 9 10 10 10 11 11 12 13 15 17 19 21 23 26 28 30 31 32 33 34 34 35 36 37
Wind_Speed
8 7 7 6 6 6 6 6 6 5 5 5 5 5 5 5 5 5 5 5 5 5 6 6 6 6 6 6 6 6 6 6 6 5 5 5 4 4 3 3 2 2 1 1 0 1 1 2 2 2 1 0 1 1 2 2 2 3 3 3 3 3 4 4 5 6 6 6 7 7 7 7 7 7 8 8 7 6 6 6 6 6 7 6 6 6 6 6 7 8 9 10 10 11 11 11 11 10 10 10 10 10 10
8 7 6 6 5 5 5 5 5 5 5 4 4 4 4 4 4 4 4 4 4 5 5 5 5 5 5 6 6 6 6 6 6 5 5 5 4 4 3 3 2 2 1 1 1 1 1 2 2 2 2 1 1 1 2 2 2 2 2 2 2 3 3 4 4 4 5 6 7 7 7 8 7 8 8 8 8 8 7 7 6 7 7 7 7 7 6 5 5 6 6 7 8 9 10 11 11 11 10 10 10 10 10
7 7 6 5 5 5 5 5 5 5 4 4 4 4 3 3 3 3 3 3 3 4 4 3 3 4 4 4 5 5 5 5 6 5 5 5 5 4 4 3 3 2 1 1 1 1 1 1 2 2 2 2 2 1 3 3 3 2 2 2 2 2 3 4 4 4 4 5 6 7 7 8 8 8 8 8 8 8 8 8 7 7 7 7 8 8 8 7 6 5 5 5 6 6 8 9 10 11 11 10 10 10 10
7 6 5 5 5 5 5 5 4 4 4 4 3 3 3 3 2 2 2 2 2 3 3 3 3 3 3 4 4 5 5 5 5 5 5 5 4 4 4 3 3 2 1 1 1 1 1 2 2 2 2 2 3 3 2 3 2 1 2 2 3 3 3 4 4 4 4 4 5 6 6 7 7 8 8 8 8 8 8 8 8 8 8 7 7 8 8 8 8 7 7 6 5 4 5 6 8 9 10 10 10 10 10
6 5 5 4 4 4 4 4 4 4 3 3 3 3 2 2 2 2 2 2 2 3 3 4 4 4 4 4 4 5 5 4 4 4 4 3 3 3 3 3 2 2 2 1 1 2 2 3 3 3 3 4 4 4 3 2 1 1 2 3 3 3 4 4 4 4 4 4 5 6 6 6 6 7 7 7 7 7 8 8 8 8 8 8 7 7 8 8 8 8 8 8 7 6 5 5 5 6 8 9 10 11 11
5 5 4 4 4 4 4 4 4 4 4 3 3 3 3 3 3 3 3 4 4 5 5 4 4 3 4 4 4 4 4 4 3 3 2 2 2 2 2 2 2 2 2 2 2 2 3 3 4 4 4 4 4 4 4 3 2 3 3 3 4 4 4 4 4 4 4 4 5 6 6 6 6 7 7 8 8 7 7 7 7 7 7 8 7 7 8 8 8 9 9 9 8 8 8 7 6 6 6 7 8 9 10
4 4 4 4 4 4 4 4 4 4 4 4 4 4 4 4 4 4 5 5 6 6 5 4 4 3 3 3 3 3 3 3 3 2 2 1 1 1 1 2 2 2 2 2 2 3 3 4 4 4 4 4 4 4 4 4 4 4 4 4 4 4 4 5 5 4 5 5 5 6 6 6 7 8 8 8 8 8 8 8 7 7 7 7 7 7 7 8 8 8 8 9 8 9 9 9 9 8 7 7 6 6 7
4 4 4 4 4 4 4 4 4 4 4 4 4 4 4 4 4 5 5 6 6 5 5 4 3 3 3 3 2 2 2 2 2 1 1 1 0 1 1 1 2 2 2 2 2 3 3 3 4 4 4 4 4 4 4 4 4 4 4 4 4 4 5 5 5 5 5 5 5 6 6 6 7 8 8 8 9 8 8 8 8 8 7 7 8 8 7 8 8 8 8 8 9 9 9 9 9 9 9 8 8 7 7
4 4 4 4 4 4 4 4 4 4 4 4 4 4 4 4 4 5 5 5 5 5 4 4 3 3 3 3 2 2 2 2 1 1 1 1 0 1 1 1 1 2 2 2 2 3 3 3 3 3 3 3 3 4 4 4 4 4 4 4 4 4 5 5 5 5 5 5 6 6 6 7 7 8 8 9 9 9 9 9 9 8 8 8 8 8 8 7 8 8 8 8 8 9 9 9 9 9 10 9 9 9 8
4 4 4 4 4 4 3 3 3 3 3 3 3 4 4 4 4 4 4 4 4 4 3 3 3 3 2 2 2 2 2 2 2 2 2 1 1 1 1 1 1 1 2 2 2 3 3 2 2 2 2 2 3 4 4 4 4 4 4 4 4 4 5 6 6 6 5 6 6 7 7 7 8 8 9 9 9 9 9 9 9 9 9 9 9 8 7 7 7 8 8 8 8 8 9 9 9 9 9 9 9 9 10
5 4 4 3 3 3 3 3 3 3 3 3 3 3 3 3 3 3 3 3 3 3 3 3 2 2 2 2 2 2 2 2 2 2 2 2 2 2 2 2 2 2 3 3 3 3 3 2 2 2 2 2 3 4 4 4 4 4 4 4 4 4 5 5 6 6 6 6 7 7 8 8 9 9 9 9 9 9 9 9 9 10 10 10 9 9 8 7 7 8 8 8 8 8 9 9 9 9 9 8 8 9 9
5 4 3 3 2 3 3 3 2 2 2 2 3 3 2 2 2 2 2 3 3 3 3 2 2 1 1 1 1 1 1 2 2 2 2 2 3 3 3 3 3 4 4 4 4 3 3 2 2 2 3 2 3 3 3 4 4 4 4 4 4 4 5 5 6 7 7 7 7 8 8 9 9 10 10 10 10 10 9 9 9 10 10 10 10 9 9 8 8 8 8 8 8 8 8 8 9 9 9 9 8 8 8
4 3 2 2 2 2 2 2 2 2 2 2 2 2 2 1 1 1 2 2 3 3 2 2 1 1 1 1 1 1 1 1 1 2 2 3 3 4 4 4 4 4 4 4 4 4 3 3 3 3 3 3 3 2 3 4 4 5 5 5 5 5 5 6 6 7 8 8 8 8 9 9 10 10 10 10 10 10 10 10 10 10 10 10 10 9 8 8 8 8 8 9 9 8 8 8 8 8 9 9 8 8 8
3 3 2 2 2 2 2 2 2 2 2 2 2 2 2 1 1 1 2 3 3 3 3 2 1 1 0 0 0 0 1 1 1 1 2 3 3 4 4 4 5 4 4 4 4 4 4 3 4 4 4 4 4 4 3 4 5 5 6 6 6 6 6 6 7 7 8 9 9 9 10 10 11 11 11 11 11 11 11 11 11 11 10 10 9 9 8 8 8 8 8 8 8 8 8 8 8 8 8 8 8 8 9
3 2 2 2 2 2 2 2 2 2 3 2 2 2 2 2 1 2 3 4 4 4 4 3 2 2 1 1 1 1 1 1 1 2 3 3 4 4 4 4 4 4 4 4 4 4 4 4 4 4 5 5 5 5 5 5 5 6 6 6 6 6 7 7 7 8 8 9 10 10 10 11 11 11 11 11 11 11 11 11 11 10 10 10 9 9 8 8 8 8 8 8 8 8 8 8 7 7 7 7 7 7 8
3 2 2 2 2 2 2 2 2 3 3 3 3 3 3 2 2 2 3 4 5 6 6 5 4 3 3 3 3 2 2 2 3 3 4 4 4 4 4 4 4 4 4 4 4 4 4 4 4 5 5 6 6 6 6 6 6 6 6 6 6 6 7 7 7 8 8 9 9 10 10 11 11 11 11 11 11 11 11 11 10 10 10 10 10 9 9 9 8 8 7 8 8 8 8 8 7 7 7 6 6 6 7
3 2 2 2 2 2 2 2 3 3 3 3 3 3 3 3 2 2 3 4 5 7 7 6 5 4 4 4 4 4 4 4 4 4 4 4 3 3 3 4 4 4 4 4 4 4 4 4 4 5 5 6 6 6 7 6 6 6 6 6 6 6 6 7 7 8 8 8 9 9 10 10 10 10 10 10 10 11 11 10 10 10 10 10 10 10 10 10 9 9 8 8 9 9 9 8 8 8 7 7 7 7 7
2 1 2 2 2 2 2 2 3 3 3 3 3 4 4 3 2 2 2 3 5 7 8 7 6 5 5 5 5 5 5 4 4 4 4 3 3 3 3 3 4 4 4 4 4 4 4 4 4 4 5 5 6 6 6 6 6 6 5 5 5 6 6 6 7 7 8 8 8 9 9 9 9 10 10 10 10 10 10 10 10 10 10 10 9 9 10 10 10 9 9 9 9 9 9 8 8 8 8 8 8 8 8
1 0 1 2 2 2 2 2 2 3 3 3 4 4 4 3 2 1 2 3 4 6 7 7 6 5 5 5 5 5 5 4 4 3 3 3 3 3 4 4 5 5 5 5 5 5 5 4 3 3 4 4 5 6 6 6 6 5 5 5 5 5 5 6 6 7 7 8 8 8 8 8 9 9 9 9 9 9 9 9 9 9 9 9 9 9 9 9 9 9 9 9 9 9 8 8 8 8 9 9 9 9 9
2 1 1 2 2 2 2 2 2 2 3 4 4 4 4 3 2 1 1 2 3 5 6 6 5 5 4 4 4 4 4 3 3 3 3 3 4 5 5 6 6 6 7 7 7 7 6 5 4 4 4 4 5 5 5 5 5 4 4 4 4 5 5 5 6 6 7 7 7 8 8 8 8 8 8 8 8 8 8 9 9 9 9 9 9 9 8 8 8 8 8 9 8 8 8 8 8 8 8 8 8 9 9
3 2 2 2 3 3 3 2 2 2 3 4 4 4 4 3 2 1 1 1 2 3 4 5 4 4 3 3 3 3 3 3 3 3 4 4 5 6 7 8 8 8 8 8 8 8 7 7 5 5 4 4 4 5 5 4 4 4 3 3 4 4 5 5 6 6 6 7 7 7 8 8 8 8 8 8 8 8 8 8 8 8 8 8 8 8 8 7 7 7 8 8 8 8 8 8 7 7 7 7 8 8 8
3 3 3 3 4 3 3 3 3 3 4 4 5 5 4 3 2 1 1 1 1 2 3 4 4 4 3 2 2 2 2 2 3 3 4 5 7 8 9 10 10 10 10 9 9 9 8 8 6 5 5 5 5 5 4 4 3 3 3 3 4 4 4 5 5 6 6 7 7 7 7 7 8 8 8 8 8 8 8 8 8 7 7 7 7 7 7 7 8 8 8 8 8 8 8 8 8 7 7 7 8 8 7
3 3 4 4 4 4 4 4 3 3 4 4 5 5 5 4 3 2 2 1 1 1 2 4 4 4 3 3 2 2 2 2 3 4 5 7 8 10 11 11 12 11 10 10 9 9 9 8 7 6 5 5 5 5 5 4 3 3 3 3 3 4 4 5 5 6 6 6 6 6 7 7 7 7 7 7 7 7 7 8 7 7 7 7 7 8 8 8 8 8 9 9 9 9 9 9 9 8 8 8 8 7 7
4 4 4 5 5 4 4 4 4 3 4 4 4 5 4 4 3 3 3 2 2 2 2 4 4 4 3 3 3 3 3 3 3 4 6 8 10 11 12 12 12 11 10 10 9 9 8 7 6 5 5 5 5 5 5 4 4 3 3 3 3 4 4 4 5 5 6 6 6 6 6 7 7 7 7 7 7 7 7 7 6 6 7 7 8 8 8 8 8 8 9 9 9 9 9 9 9 9 8 8 8 7 7
5 5 5 5 5 5 5 4 4 4 3 3 4 4 4 4 4 4 4 3 3 3 3 3 4 4 4 4 4 4 4 4 5 6 7 9 11 12 13 12 12 11 10 9 8 8 7 6 5 5 5 5 5 5 5 5 4 4 3 3 3 3 4 4 4 5 5 6 6 6 6 6 7 7 7 7 7 7 7 6 6 6 7 8 8 8 8 8 8 9 9 9 9 9 9 9 9 9 9 8 8 8 7
6 6 6 6 6 6 5 5 5 4 3 3 3 3 3 3 4 4 4 4 4 3 3 3 4 5 5 5 5 5 5 6 6 7 8 9 11 12 12 12 10 9 8 7 7 6 6 5 4 4 4 5 5 5 5 5 5 4 3 3 3 3 3 4 4 5 5 6 6 6 6 6 6 6 6 6 6 6 6 6 6 6 7 8 8 8 8 8 8 9 9 9 9 9 9 9 9 9 9 9 9 8 8
6 6 7 7 7 7 6 5 5 4 3 3 3 3 3 3 4 5 5 5 4 4 4 4 5 6 7 6 6 6 6 7 7 8 9 10 11 11 11 10 8 7 6 6 5 5 5 4 4 4 4 4 5 5 5 5 5 4 3 2 2 2 3 4 4 5 5 6 6 6 6 6 6 6 6 6 6 6 6 6 7 7 7 8 8 9 9 8 9 9 9 9 9 10 10 10 10 10 10 9 9 9 9
7 7 7 7 7 7 7 5 5 4 4 4 4 4 3 4 5 6 6 5 5 5 4 5 6 8 8 8 8 7 7 7 8 8 9 10 10 10 9 7 6 5 5 5 4 4 4 4 4 4 4 4 5 5 5 5 5 4 3 2 2 2 3 4 4 5 5 5 6 6 6 6 6 6 6 6 6 6 6 6 7 7 8 8 9 9 9 8 9 9 9 9 10 10 10 10 10 10 10 10 10 10 10
9 8 8 8 8 8 7 6 5 5 6 7 6 5 4 5 5 6 5 5 5 5 6 6 8 9 9 9 8 7 7 7 7 8 9 9 8 7 6 5 5 4 4 4 4 3 3 3 3 4 4 4 5 5 5 5 5 4 3 2 2 2 3 4 5 5 5 5 5 5 5 5 6 6 6 6 6 6 6 7 7 7 8 8 8 8 8 8 9 9 9 9 10 10 10 11 11 11 11 11 12 12 12
10 9 9 8 8 8 7 6 6 7 7 8 8 6 5 5 6 5 5 6 7 7 7 8 9 9 9 9 8 7 6 7 7 7 7 7 6 5 5 4 4 4 4 4 3 3 3 3 3 4 4 4 4 5 5 5 5 4 3 2 2 2 3 4 4 5 5 5 5 5 5 5 5 6 6 6 6 6 7 7 7 7 8 8 8 9 9 9 9 9 10 10 10 11 11 11 11 12 12 12 13 13 13
11 11 10 10 9 8 7 7 7 8 8 9 9 8 7 6 6 6 6 7 8 8 8 8 9 9 9 8 7 6 6 6 6 6 5 5 5 4 4 3 3 3 3 3 3 3 3 3 4 4 4 4 5 4 4 5 4 4 3 2 2 2 3 4 4 4 5 5 5 5 5 5 6 6 6 6 6 7 7 7 7 8 8 8 9 9 9 9 10 10 10 10 11 11 12 12 12 13 13 13 14 14 14
12 12 11 10 9 8 8 8 9 9 10 10 10 10 8 7 7 7 8 8 8 8 8 9 9 9 8 7 6 6 5 5 5 4 4 4 3 3 3 3 3 3 3 3 3 3 3 4 4 4 4 4 4 4 4 5 5 4 4 3 3 3 3 3 4 4 4 4 5 5 5 6 6 6 6 6 6 7 7 7 7 8 8 8 9 9 10 10 10 11 11 11 12 12 13 13 13 14 14 14 14 15 15
13 13 12 11 10 9 9 10 10 11 11 11 11 11 9 8 8 8 9 9 8 8 8 9 9 8 7 6 5 4 4 4 3 3 3 3 3 3 3 2 2 3 3 3 3 4 4 4 4 4 4 4 4 4 5 5 5 5 4 3 3 3 3 3 4 4 4 5 5 5 6 6 7 7 7 7 6 7 7 7 7 8 8 9 9 10 10 11 11 12 12 12 13 13 14 14 14 14 14 15 15 15 15
13 12 12 11 10 10 11 11 11 11 12 12 12 11 10 9 8 8 9 9 8 8 8 8 8 7 5 4 4 3 3 2 2 2 2 2 2 2 2 2 2 2 3 3 4 4 4 4 4 4 4 4 5 5 5 5 6 5 4 4 4 4 4 4 4 4 4 5 5 6 6 7 7 7 7 6 6 7 7 7 8 8 9 10 10 11 11 12 12 13 13 13 13 14 14 14 14 14 15 15 15 16 16
13 12 11 11 11 12 12 12 12 12 12 13 12 11 9 8 8 9 9 8 8 8 8 7 6 5 3 3 2 2 2 1 1 1 1 2 1 1 1 2 2 2 3 3 3 4 4 4 4 5 5 5 5 5 5 5 5 5 5 5 5 5 5 4 4 5 5 5 6 6 7 7 7 7 7 6 7 7 7 8 9 9 10 11 11 12 12 13 13 13 13 13 13 14 14 14 14 14 15 15 16 16 16
13 12 12 11 12 13 13 13 13 13 13 13 12 10 8 8 8 9 9 8 8 8 7 6 5 4 3 2 2 1 1 1 0 0 1 1 1 1 1 1 2 2 2 3 3 3 4 4 4 5 5 5 5 4 4 5 5 6 6 6 6 5 5 5 5 5 5 5 6 6 6 7 7 7 7 7 7 7 8 9 10 10 11 11 12 12 13 13 13 13 13 13 13 13 14 14 14 15 15 15 16 16 16
14 13 12 12 13 13 13 14 14 14 14 13 11 9 8 8 8 9 9 8 8 8 7 5 4 3 2 2 1 1 1 1 1 1 1 0 0 0 1 1 2 2 2 2 3 3 3 4 4 4 4 4 4 4 4 5 6 6 7 7 6 6 6 6 6 6 6 6 6 6 6 6 7 7 7 7 7 8 9 10 11 11 11 12 12 12 12 13 13 12 12 12 13 13 13 14 14 14 15 15 16 16 16
14 14 13 13 13 14 14 15 15 14 13 11 10 8 8 8 9 9 9 8 8 7 6 5 4 3 2 2 2 2 2 2 2 1 1 1 1 1 2 2 3 3 3 3 3 3 3 4 4 4 4 3 3 4 5 6 6 7 7 7 7 7 7 6 6 6 6 6 6 6 6 7 7 7 7 7 8 9 10 11 11 12 11 11 11 11 12 12 12 12 12 13 13 13 13 13 14 14 14 15 15 16 16
15 15 14 14 14 14 15 15 15 13 11 10 9 8 8 9 9 9 8 8 7 6 5 4 3 3 3 2 2 2 2 2 2 2 2 2 2 2 3 3 4 3 3 3 3 3 3 3 3 3 3 4 5 6 6 6 6 7 8 8 8 8 7 7 7 7 7 7 7 7 7 7 7 7 8 8 9 10 11 12 12 12 11 11 11 11 12 12 13 13 13 14 14 14 14 14 13 13 13 14 14 15 15
16 16 15 14 14 15 16 16 15 13 11 9 8 8 9 9 9 8 7 7 6 6 5 5 4 3 3 3 3 3 2 2 2 2 2 2 3 3 4 4 4 4 4 4 4 4 4 3 3 4 4 5 6 6 6 6 7 8 9 9 9 8 8 8 8 7 7 7 7 7 8 8 8 8 8 9 9 10 11 12 12 12 12 11 11 12 12 13 14 14 14 15 15 15 14 14 13 13 13 13 14 14 15
17 16 16 15 15 15 16 16 15 13 11 9 9 9 10 10 9 7 7 6 6 6 6 5 4 4 3 3 3 3 2 2 2 2 2 3 3 4 4 4 4 4 4 4 4 4 3 3 4 5 5 6 6 6 6 6 7 8 9 9 8 8 8 8 8 8 8 8 8 8 8 8 9 9 9 9 10 11 11 12 12 12 12 12 12 13 13 14 14 15 15 15 15 15 15 14 13 13 12 13 13 14 14
17 17 16 16 16 16 17 16 15 13 11 10 10 10 10 10 8 7 7 7 7 7 6 5 5 4 4 3 3 2 2 2 2 2 3 3 3 4 4 4 4 4 4 4 4 4 3 4 4 5 5 5 5 5 6 7 8 9 9 8 8 8 8 8 8 9 9 9 10 10 10 9 9 9 10 10 10 11 11 12 12 12 12 12 13 14 14 15 15 15 16 16 15 15 15 14 13 12 12 12 13 13 13
17 17 17 17 17 17 17 16 15 13 12 11 11 11 11 9 8 8 8 8 8 7 6 6 5 4 4 3 3 2 2 2 2 2 2 3 3 4 4 4 4 4 3 3 3 3 4 4 5 5 5 5 5 5 6 7 8 9 9 9 8 8 8 9 9 10 10 11 11 11 11 11 11 10 10 11 11 11 12 12 12 12 12 13 14 14 15 15 16 16 16 16 15 15 15 14 13 13 12 12 12 12 13
17 17 17 18 18 18 18 17 15 14 12 12 12 12 11 10 8 8 9 9 8 7 6 6 5 4 4 3 3 3 2 2 2 2 2 3 3 4 4 4 4 4 3 3 3 4 4 5 5 5 5 5 5 6 6 7 9 9 10 10 10 10 10 10 10 11 12 12 13 13 13 13 12 12 12 12 12 12 12 12 12 12 13 13 14 14 15 16 16 16 16 15 15 14 14 14 13 13 12 12 12 12 12
18 18 19 19 19 19 18 17 15 13 12 13 13 12 11 10 9 9 9 9 8 7 6 6 5 4 4 3 3 3 2 2 2 2 2 2 3 3 4 4 4 4 3 3 4 4 5 5 5 6 6 6 6 6 7 8 9 11 12 12 12 12 12 12 12 13 13 14 14 14 15 15 14 14 14 14 13 13 13 13 13 13 13 13 14 14 15 15 15 15 15 15 14 14 13 13 13 13 13 12 12 12 12
19 20 20 20 20 19 18 17 15 13 13 14 14 13 12 11 10 10 10 9 8 7 7 6 5 5 4 3 3 3 2 2 2 2 2 2 2 3 4 4 4 4 3 3 3 4 4 5 6 6 7 7 7 8 8 9 11 12 13 14 14 14 14 14 14 14 14 15 15 16 16 16 16 16 16 16 15 15 15 14 14 14 14 14 14 14 14 14 15 14 14 14 13 13 12 12 13 13 13 13 12 12 12
21 21 20 20 20 19 17 16 14 13 14 15 15 14 12 11 10 10 10 9 8 8 7 6 5 5 4 3 3 2 2 2 2 2 2 2 2 3 4 4 4 4 4 3 3 3 3 5 6 7 7 8 8 9 10 11 12 13 14 14 15 15 15 15 15 15 15 15 16 16 17 17 17 17 17 17 17 17 17 16 16 16 15 15 15 14 14 14 14 13 13 12 12 11 11 11 12 12 12 12 12 12 11
21 21 20 20 19 18 17 15 14 14 15 16 15 14 13 11 11 10 10 10 9 8 7 6 5 5 4 4 3 2 2 2 2 2 2 2 3 3 3 4 4 4 4 3 3 2 3 5 7 8 8 9 9 10 10 12 13 13 13 14 14 14 15 15 15 15 15 15 16 16 17 18 18 18 18 18 18 18 18 18 18 18 17 17 16 15 14 14 13 12 12 11 10 10 10 10 10 11 11 12 11 11 10
22 21 21 20 20 18 17 15 15 15 16 16 16 14 13 12 12 11 11 10 10 9 7 6 5 4 4 3 3 2 1 1 1 1 2 3 3 3 3 3 4 3 3 3 2 2 3 5 7 9 9 9 10 10 11 12 12 13 13 13 13 13 13 14 14 15 15 15 16 16 17 18 18 18 18 18 19 19 19 19 19 19 19 18 17 16 15 14 12 11 11 10 9 9 9 9 9 10 10 11 10 10 9
23 22 22 21 21 19 17 16 16 16 17 17 16 15 14 13 13 12 12 11 10 9 8 6 5 4 3 2 2 1 1 1 1 1 2 3 3 3 3 3 3 3 3 2 2 2 3 5 7 9 10 10 10 10 11 11 12 12 12 12 12 12 13 13 14 14 15 16 16 17 17 18 18 18 19 19 19 19 19 20 20 20 19 19 18 17 15 14 12 11 10 9 9 8 8 8 9 9 10 10 9 9 9
24 23 23 22 21 20 18 17 17 18 18 18 17 16 16 15 14 14 13 12 11 10 8 7 5 4 3 2 2 1 1 0 0 1 2 2 2 3 4 3 3 3 2 2 1 2 3 5 7 9 10 10 9 10 10 11 11 12 12 12 12 12 13 13 13 14 15 15 16 17 17 18 18 18 18 19 19 19 20 20 20 20 20 19 18 17 16 14 12 10 9 9 8 8 8 8 9 10 10 10 9 9 10
24 24 24 23 22 21 19 18 18 19 19 19 19 18 17 16 15 15 14 13 12 11 9 7 6 4 3 3 2 1 1 0 1 1 2 3 3 3 3 4 3 3 3 1 1 1 3 5 8 9 10 9 9 9 10 10 11 11 11 11 12 12 12 13 13 14 14 15 16 16 17 17 17 18 18 18 19 19 20 20 20 20 20 19 19 18 17 15 13 11 10 9 8 8 8 9 9 10 11 11 11 11 11
25 25 25 25 23 22 21 20 20 20 21 21 20 19 18 17 16 15 15 14 13 11 9 8 7 6 5 4 3 2 1 0 1 1 2 3 3 3 3 4 3 2 2 0 1 1 2 5 7 9 9 8 8 8 9 9 10 10 11 11 11 12 12 12 13 13 14 14 15 15 16 16 17 17 18 18 19 19 20 20 20 20 20 19 19 19 18 17 15 13 11 10 9 9 9 9 10 11 12 12 12 12 13
26 26 26 26 24 23 22 21 21 21 22 22 21 20 19 18 17 16 15 14 13 12 10 8 8 7 6 5 4 3 2 1 1 2 2 3 3 3 4 4 4 3 2 1 1 2 3 6 8 8 7 6 6 7 8 9 9 10 10 11 11 11 12 12 12 13 13 14 14 14 15 15 16 16 17 17 18 18 19 19 19 19 19 19 19 19 18 18 16 15 13 12 11 11 10 10 11 12 13 13 14 13 13
27 27 27 26 25 24 23 22 22 23 23 23 22 21 20 19 18 17 16 15 13 12 10 9 9 8 8 6 5 3 3 2 2 2 2 3 3 3 4 4 5 4 3 2 1 2 3 7 9 8 6 5 5 7 8 9 9 10 10 11 11 12 12 12 12 12 13 13 14 14 14 15 15 16 16 17 17 17 18 18 18 18 18 18 19 19 18 18 17 16 15 14 13 13 12 12 12 13 14 15 15 14 14
28 28 27 27 26 25 24 23 23 24 24 24 23 22 21 19 18 17 16 15 14 12 11 11 10 10 9 7 6 5 4 3 3 2 3 3 3 4 4 4 4 3 2 2 3 4 5 7 9 8 5 5 6 7 8 9 9 10 10 11 12 12 12 12 13 13 13 14 14 14 14 15 15 15 15 16 16 16 16 17 17 17 18 18 18 18 18 17 17 16 15 15 15 14 14 14 14 15 16 16 16 15 16
29 28 28 27 26 25 24 24 25 25 25 24 24 23 21 20 19 18 17 16 14 13 12 12 11 11 10 8 7 6 5 4 4 4 4 4 4 4 4 4 4 4 3 3 4 5 7 8 8 6 5 8 9 8 9 9 10 10 11 12 12 13 13 13 14 14 14 15 15 15 15 15 16 16 15 15 15 15 16 16 16 17 17 17 17 17 17 16 16 16 16 15 15 15 15 15 16 17 17 17 17 17 17
30 29 28 27 26 25 24 25 25 26 26 25 24 23 22 21 20 19 18 16 15 14 13 13 13 12 11 9 8 7 6 6 5 5 5 5 5 5 5 5 5 5 5 5 5 6 7 8 7 7 7 9 10 10 10 10 11 11 12 13 13 13 14 14 15 15 15 15 15 15 15 15 16 16 16 16 16 16 16 16 16 16 16 16 16 16 16 16 16 16 16 16 16 16 16 17 17 18 18 18 18 18 19
31 30 29 28 27 25 24 24 25 26 26 26 25 24 23 22 21 20 18 17 15 15 15 15 14 13 12 10 9 9 8 7 7 6 6 6 6 5 5 6 6 6 6 6 6 6 7 7 8 9 9 8 9 11 12 12 12 12 13 14 14 15 15 15 16 16 16 16 16 16 16 16 16 16 16 16 16 16 16 15 15 15 15 15 15 15 15 15 16 16 16 16 16 16 17 18 18 19 19 19 19 20 21
32 31 30 29 28 26 24 24 25 27 27 27 26 26 24 23 22 20 19 17 17 16 16 16 15 14 13 12 11 10 9 8 8 8 8 7 7 7 6 6 6 6 6 7 7 7 8 8 8 8 8 8 9 11 13 13 14 14 14 14 15 15 16 17 17 16 16 16 17 17 17 17 16 16 16 16 16 16 16 15 15 15 15 15 15 15 15 16 16 16 16 16 16 17 18 18 19 19 19 20 20 21 22
32 32 31 30 29 27 25 24 25 26 28 28 28 27 26 24 22 21 20 19 18 18 18 17 16 15 14 13 12 11 10 10 9 9 9 8 8 8 7 7 7 7 7 8 8 8 8 9 9 8 8 9 11 12 14 14 14 15 15 15 15 16 16 17 17 17 17 17 17 18 18 17 17 17 17 17 17 16 16 15 15 15 15 15 15 15 16 16 16 16 16 16 17 17 18 19 19 20 20 21 22 23 24
Wind_Direction
126 126 127 128 130 130 129 127 126 126 124 123 120 120 124 127 130 131 131 134 137 140 139 142 144 143 142 141 141 141 140 136 134 131 129 127 127 129 132 138 148 164 182 206 260 299 300 293 293 300 311 17 92 93 80 62 50 46 41 35 27 19 15 26 42 46 35 23 14 9 6 8 7 4 0 357 358 3 7 6 4 360 357 357 2 6 6 10 9 4 360 357 357 356 355 355 356 357 358 358 359 360 360
130 131 132 133 133 131 127 124 122 119 117 115 113 111 112 114 117 120 126 132 137 139 140 143 145 145 143 142 141 138 136 133 132 132 132 132 133 135 139 146 158 171 186 202 240 279 290 289 291 297 306 323 8 76 91 75 57 41 33 21 12 5 2 10 28 43 41 27 14 4 358 359 359 358 356 353 353 353 352 352 351 348 347 348 350 352 352 359 2 2 357 356 355 354 351 349 348 349 350 352 354 356 357
134 135 136 136 133 127 123 118 116 113 111 107 104 100 98 98 100 104 113 122 127 130 134 135 135 134 134 134 132 130 130 131 133 137 139 142 143 146 150 157 164 174 185 202 239 275 285 281 281 289 304 318 335 38 86 84 68 34 7 346 340 344 349 355 6 27 41 31 16 3 355 355 354 352 352 350 347 345 344 342 340 341 343 345 345 344 343 343 342 342 343 350 353 352 349 345 343 342 341 343 346 349 352
137 137 136 133 126 120 114 109 106 103 99 95 92 88 83 81 80 80 86 100 109 109 108 102 100 103 112 119 123 126 129 134 140 145 149 151 154 157 161 167 172 182 197 215 250 277 285 288 292 299 315 327 336 355 44 68 66 16 323 315 320 330 339 343 349 3 29 29 13 360 353 350 348 346 346 343 341 339 338 337 337 338 339 341 342 340 337 337 335 332 330 334 337 339 342 341 340 339 336 337 339 342 344
138 136 132 126 117 109 101 95 88 81 74 70 66 62 58 50 46 39 34 33 50 60 62 68 74 84 96 110 120 128 132 137 142 149 154 159 164 169 176 182 191 202 217 241 264 283 295 300 306 313 324 334 339 345 358 17 15 325 308 311 320 331 337 337 337 349 14 17 4 353 346 341 338 338 337 336 333 331 331 331 331 331 333 333 333 332 331 331 331 331 331 330 328 326 325 323 326 331 331 334 337 337 337
137 132 126 117 106 96 86 77 69 59 51 41 32 27 24 21 18 15 10 9 22 34 42 50 62 75 89 103 116 124 130 135 139 145 155 167 181 194 204 214 223 233 248 264 280 293 301 307 313 321 328 335 338 339 345 347 341 328 322 326 332 337 339 334 334 346 8 5 354 344 338 334 328 325 326 326 325 324 323 324 322 321 324 321 321 322 324 323 323 326 327 327 328 328 324 319 318 319 321 327 331 334 335
133 125 115 105 95 85 74 64 54 46 37 28 19 13 9 7 9 12 13 13 23 36 46 53 60 69 80 91 100 109 117 126 131 138 150 172 204 229 245 252 259 266 275 284 295 302 308 313 319 324 327 332 336 341 343 342 340 339 340 342 344 344 342 336 339 350 2 353 341 334 331 329 327 323 318 319 320 319 319 316 313 312 312 309 310 312 312 313 316 318 318 322 324 325 324 322 322 320 317 317 321 325 329
127 116 106 97 88 78 70 61 51 43 35 26 19 14 9 12 17 20 22 22 30 43 54 59 64 67 69 72 74 78 84 94 104 113 123 156 217 257 269 277 283 288 294 302 310 315 317 321 325 326 328 332 343 352 354 349 347 348 351 352 352 350 348 343 346 353 354 344 333 326 323 320 321 319 314 315 316 316 317 315 314 313 311 307 306 305 304 307 310 311 312 316 317 316 317 318 320 321 319 319 319 318 317
129 118 107 97 88 78 71 64 57 49 41 34 27 22 22 26 30 31 32 32 36 43 52 58 60 61 63 62 59 55 52 52 56 54 47 35 354 306 297 301 304 311 318 327 332 336 336 335 333 330 328 340 3 15 11 2 357 356 357 358 358 358 356 351 353 355 352 341 334 330 325 322 319 317 317 320 323 324 325 324 323 321 317 313 310 307 304 305 308 310 309 311 311 310 311 313 315 317 317 319 319 317 313
137 126 116 104 92 82 74 69 64 58 52 47 41 39 37 38 40 39 38 33 33 35 39 43 48 49 52 53 51 47 43 42 37 32 22 16 10 7 1 355 355 356 0 4 5 4 359 352 342 335 333 3 32 34 23 12 5 2 359 359 0 2 0 357 355 354 353 348 343 338 334 330 326 325 327 330 332 332 332 332 331 328 325 322 320 318 315 313 311 310 309 310 309 309 310 313 314 313 313 315 316 316 315
147 139 129 115 101 89 80 75 72 66 61 57 54 53 50 49 46 40 35 32 28 25 24 24 24 26 32 38 40 38 36 34 30 24 21 21 26 32 37 41 40 40 36 33 29 26 24 14 0 351 356 23 44 46 36 21 10 2 358 356 356 357 357 355 352 349 349 349 344 339 335 329 328 329 331 333 332 332 333 332 329 327 327 327 328 329 329 329 324 319 317 316 314 313 312 313 313 312 311 311 312 313 315
155 149 138 124 105 91 81 76 70 62 56 54 54 55 55 55 49 41 33 30 28 25 20 11 4 358 6 17 22 28 27 23 24 21 23 32 40 46 50 54 55 53 50 44 42 40 39 36 24 11 7 18 35 48 45 27 11 357 350 346 347 347 347 346 344 342 342 342 338 333 328 325 325 327 329 329 329 328 328 326 323 323 325 327 330 332 335 337 333 327 324 321 319 318 317 315 315 314 312 312 314 316 317
158 153 143 125 101 83 73 66 59 50 43 43 45 48 51 54 50 43 43 40 39 35 28 19 5 350 339 346 356 10 15 20 19 24 39 50 54 55 56 58 58 57 53 49 44 40 36 32 21 11 3 359 7 22 28 20 4 350 341 338 337 337 337 337 337 336 335 333 331 328 324 322 323 326 327 327 325 324 324 322 322 322 323 325 328 331 334 334 331 326 324 321 320 321 320 319 318 317 319 321 322 323 325
152 145 133 111 88 73 64 56 48 40 33 32 36 40 47 55 59 57 58 55 52 49 46 45 43 36 24 23 27 34 44 48 53 60 72 74 69 65 61 59 56 54 49 45 38 29 21 15 8 2 355 350 348 352 359 0 355 345 336 332 331 331 332 332 333 333 332 330 329 326 323 323 324 326 327 326 324 323 323 323 323 322 321 322 324 327 328 325 321 320 319 318 319 319 319 318 318 320 322 324 325 327 329
136 127 112 91 72 61 54 46 34 27 23 27 32 40 46 52 61 66 65 62 59 59 59 60 62 63 65 71 73 76 86 105 114 107 97 91 83 74 66 58 52 45 37 30 24 15 7 2 358 353 348 346 344 343 343 346 345 340 332 328 328 328 329 330 331 331 330 329 328 327 326 326 327 327 326 326 325 324 323 323 322 321 319 320 320 321 320 316 313 311 311 312 311 311 312 313 315 315 315 318 318 318 318
124 110 91 68 57 49 41 33 24 20 21 26 33 39 43 48 56 64 66 66 66 67 66 66 67 69 73 77 82 87 98 113 118 112 102 95 88 76 64 53 43 34 24 16 9 2 358 355 353 350 347 345 341 337 336 338 339 335 329 325 325 326 328 329 330 330 329 328 327 328 328 328 328 327 327 327 326 325 325 324 322 320 318 318 317 316 314 310 308 306 304 303 302 302 305 305 304 304 304 304 303 301 297
118 95 68 50 39 29 25 20 18 20 24 32 38 39 41 43 48 57 66 69 72 73 72 70 70 74 80 85 89 94 101 109 111 106 99 93 81 65 50 37 29 19 10 3 357 352 349 349 350 349 346 341 336 332 331 334 334 332 326 323 323 325 327 329 331 331 329 328 328 328 328 328 328 328 327 328 327 327 326 325 323 321 319 318 318 317 315 313 312 311 307 300 297 299 302 301 297 296 297 296 293 289 286
123 83 42 22 12 5 3 6 14 23 31 37 39 38 38 39 42 51 64 72 77 78 76 75 74 77 85 91 95 98 99 101 100 97 92 81 61 40 23 14 6 2 356 352 349 345 343 344 345 346 342 337 332 329 328 331 331 328 324 321 323 325 328 330 332 331 330 329 329 329 329 329 329 328 328 329 329 328 327 327 325 324 323 323 322 321 320 319 320 320 315 308 303 303 305 305 301 298 299 297 294 290 288
154 72 1 348 338 335 337 351 8 24 35 36 33 32 33 35 37 43 59 76 82 81 79 78 76 79 86 93 97 96 93 90 85 79 69 50 27 10 359 353 350 349 347 347 345 341 338 338 339 339 337 332 328 326 327 329 329 326 322 321 323 327 331 332 333 332 331 331 331 330 330 329 330 329 330 330 330 329 329 329 328 327 329 328 327 327 326 326 327 325 322 318 316 315 315 311 308 306 305 303 300 297 295
196 244 306 309 308 306 312 325 350 17 30 28 26 26 27 30 30 25 41 78 87 84 80 77 73 74 79 85 88 86 82 75 65 49 31 14 0 351 345 344 343 342 343 343 341 339 336 334 336 337 335 330 327 325 327 329 328 324 320 320 324 329 332 334 333 333 332 332 332 332 331 331 330 331 331 331 331 331 331 330 330 332 335 333 332 332 331 330 330 327 322 321 321 321 319 313 310 309 308 308 306 303 301
214 245 274 283 285 285 291 302 324 358 17 18 19 19 21 20 16 7 9 70 92 88 80 69 60 55 56 59 63 65 64 54 39 23 7 354 346 342 340 339 338 337 338 338 337 334 330 330 333 336 337 332 328 327 328 330 329 325 321 322 326 330 333 335 335 335 334 334 334 334 333 333 332 333 333 333 332 332 331 330 332 336 338 336 334 333 331 326 324 322 318 317 317 316 314 313 310 307 307 307 307 307 308
224 246 264 271 270 270 276 289 307 338 2 9 12 14 14 8 357 344 344 11 78 85 72 50 36 27 22 17 23 31 35 27 10 354 343 339 337 336 335 333 332 330 330 330 329 326 323 323 327 332 336 333 330 329 330 335 338 335 330 329 330 332 335 337 337 336 336 336 336 336 335 334 333 334 335 333 332 331 330 330 335 340 338 336 333 330 329 324 322 321 320 321 320 320 319 319 317 314 311 310 309 310 312
229 249 262 265 262 262 267 280 297 323 345 357 6 10 8 358 343 325 322 334 355 39 49 28 16 5 355 344 342 347 354 351 338 326 324 327 329 328 327 326 324 322 321 321 320 318 315 316 320 327 332 332 332 331 333 340 350 351 344 336 334 334 335 337 337 336 336 336 336 337 336 335 335 335 336 333 330 330 331 333 338 341 335 332 330 328 328 328 328 328 327 328 328 328 326 325 324 323 320 317 315 315 316
234 250 260 260 257 256 259 269 283 303 325 343 356 3 2 349 329 311 309 322 334 353 16 7 356 342 329 317 314 315 318 318 316 314 315 317 320 320 319 317 314 312 312 312 312 310 307 309 313 321 326 329 329 330 332 341 351 356 349 340 335 333 334 335 336 336 335 336 336 336 336 335 334 335 335 331 330 331 333 337 341 340 333 331 330 330 332 333 333 332 330 330 329 328 327 326 325 325 323 321 319 317 315
237 249 256 256 252 248 251 256 267 282 302 326 346 353 350 336 317 304 302 311 325 339 353 344 330 314 301 294 295 299 300 302 304 306 309 310 311 311 310 307 305 303 304 305 304 303 300 301 306 314 321 324 324 325 328 334 343 349 346 337 331 329 330 332 334 334 334 333 334 334 335 334 333 333 333 332 333 335 336 339 340 338 334 331 329 330 333 335 333 330 328 328 327 326 325 324 325 324 322 320 318 315 312
238 248 254 254 249 244 246 251 260 271 289 315 333 335 330 320 307 300 299 304 314 324 332 321 304 291 283 282 285 289 290 294 296 300 303 305 305 305 303 300 298 297 299 300 299 297 295 296 303 309 314 317 317 319 323 327 334 340 341 332 325 323 324 330 332 332 331 331 332 333 333 333 333 333 333 334 336 337 338 337 337 336 334 330 328 330 333 334 331 328 326 326 326 325 325 324 324 323 322 320 318 316 313
239 248 254 254 250 247 246 251 261 276 297 319 317 305 305 306 301 298 299 302 306 312 313 300 285 277 275 278 281 282 283 287 291 296 299 302 302 301 298 295 294 294 296 296 294 292 291 294 300 304 307 309 311 314 317 320 325 330 332 322 313 314 321 326 330 331 331 331 332 332 333 333 333 333 334 335 337 337 336 335 333 331 329 327 326 328 331 332 329 326 326 326 326 325 325 324 324 322 322 321 319 318 315
240 249 255 255 251 246 242 249 263 281 303 312 298 285 294 297 297 298 300 299 297 297 292 281 272 269 270 272 274 275 277 283 290 296 299 300 299 297 293 291 290 291 291 289 286 284 285 290 294 298 301 303 307 309 312 314 318 322 323 312 303 311 321 326 329 331 332 332 333 335 334 334 333 334 335 336 335 333 332 330 327 325 325 323 323 325 328 328 326 325 325 325 325 324 324 323 322 322 321 320 318 317 315
239 248 254 253 247 239 239 247 259 274 293 297 290 284 292 292 293 294 294 287 283 279 274 268 264 263 265 266 268 271 278 286 293 296 298 297 295 291 287 286 285 285 284 279 275 275 277 283 290 293 295 297 301 303 305 307 312 315 317 306 302 316 325 328 332 334 336 337 338 338 338 336 335 333 333 332 331 329 328 326 324 323 323 321 322 324 325 324 324 323 323 323 322 321 320 320 319 319 318 317 315 315 313
241 249 253 251 242 234 237 245 255 268 282 288 290 289 288 286 287 284 278 272 269 267 265 262 261 261 262 264 269 276 286 292 294 294 294 290 286 283 280 278 278 276 273 270 268 269 273 277 283 286 288 290 293 295 298 303 307 312 318 316 321 328 333 335 338 341 343 344 344 343 341 337 334 330 329 328 327 326 325 325 324 324 323 322 322 323 323 323 322 321 320 320 318 317 316 316 316 315 314 313 313 312 311
246 253 254 251 241 231 232 240 251 262 274 285 290 289 282 279 277 273 265 262 263 263 263 261 261 262 265 271 277 285 292 292 291 289 286 280 275 272 269 268 267 265 265 265 268 269 275 276 278 281 281 284 286 290 295 299 306 315 328 337 344 345 345 347 349 351 353 351 349 344 340 334 330 327 325 325 325 325 326 325 325 325 325 324 323 323 323 322 321 319 317 316 315 314 313 312 312 311 311 311 311 311 310
250 254 254 249 240 230 227 236 247 258 269 278 283 283 277 273 268 263 260 261 264 267 267 265 264 265 270 276 282 286 286 284 282 279 275 269 264 259 256 255 256 259 264 269 272 275 279 280 279 280 281 283 287 292 297 302 312 325 342 354 2 5 4 4 3 2 359 354 349 343 337 331 327 326 325 326 326 327 328 328 327 327 326 325 323 322 321 319 317 315 314 314 313 311 310 310 310 310 310 311 310 310 310
249 252 251 246 238 231 229 236 245 254 264 269 272 272 270 266 260 258 260 265 272 276 276 272 269 269 273 275 278 277 272 269 267 264 260 257 254 252 252 255 259 267 275 279 282 283 285 286 284 285 287 289 293 298 303 312 324 339 356 13 25 27 24 19 14 7 359 351 344 338 333 329 326 326 326 328 328 330 331 330 329 327 325 323 321 319 318 316 314 313 313 312 311 310 310 311 311 311 311 311 311 310 310
248 248 246 242 237 235 235 239 245 251 257 259 261 262 263 259 255 256 262 269 276 280 280 277 273 270 269 268 267 262 257 251 249 252 252 253 254 256 261 269 278 284 289 290 291 291 292 292 291 292 295 298 301 307 314 325 338 355 18 37 45 42 33 25 16 5 356 348 341 336 332 329 327 327 328 330 331 331 332 331 329 327 324 322 319 317 316 315 314 313 313 312 312 312 312 312 312 312 312 311 310 310 310
245 243 239 235 233 234 238 241 244 248 250 251 254 256 256 253 253 257 265 272 278 281 280 276 271 264 257 253 255 254 246 235 235 242 252 256 265 277 287 294 299 302 301 301 300 297 297 298 299 301 304 306 312 319 330 342 360 22 45 53 51 41 30 20 10 1 354 347 343 339 335 331 329 328 330 331 332 332 332 331 329 327 324 321 318 317 316 315 314 313 313 315 315 315 314 313 313 312 312 311 311 310 310
239 235 230 227 227 230 234 238 241 243 244 247 249 251 251 252 255 261 267 274 278 279 276 271 263 254 244 244 247 245 223 205 196 226 248 260 277 295 314 323 325 327 322 319 314 308 306 306 308 312 315 319 327 338 353 11 32 49 56 53 44 33 22 13 6 1 357 353 349 344 339 335 331 330 331 332 334 334 333 332 329 327 324 321 319 318 317 314 313 313 315 316 316 314 314 313 313 312 312 311 311 310 310
231 226 221 220 222 225 229 232 235 238 240 244 247 249 250 254 259 264 269 272 274 272 268 260 252 243 236 233 220 194 168 152 157 179 202 226 297 17 22 19 12 4 353 344 333 326 320 320 322 324 328 336 350 10 32 49 56 56 49 40 30 22 15 10 7 5 3 360 355 349 343 338 335 333 333 334 336 336 335 332 329 327 324 322 321 320 317 315 313 314 315 315 313 312 311 311 312 312 312 312 311 311 311
225 220 217 217 220 223 225 228 232 235 238 243 247 250 253 257 261 264 266 268 267 262 253 245 234 220 208 195 172 155 148 141 145 148 142 113 86 68 56 47 37 26 13 2 351 343 338 337 338 342 351 10 36 56 63 63 56 45 33 23 17 14 11 10 10 8 6 2 357 353 347 343 340 337 337 337 338 338 336 333 330 327 325 324 323 322 319 317 315 314 313 312 310 309 309 309 310 311 312 313 313 312 311
222 218 217 218 220 221 223 227 231 235 239 245 250 253 255 256 258 259 260 259 254 246 233 221 208 192 180 165 152 145 143 139 135 125 110 94 79 65 57 51 44 34 22 11 3 358 355 356 2 15 36 58 69 72 67 57 41 26 16 12 10 9 10 10 9 7 5 1 358 355 352 349 345 343 341 341 341 340 338 334 332 330 329 328 327 326 323 321 318 316 313 311 309 308 308 308 309 311 313 314 314 313 313
222 218 217 219 220 221 223 227 232 236 242 250 255 255 253 252 251 250 247 242 234 221 209 198 186 174 163 152 146 144 141 134 123 111 97 86 72 64 58 53 47 37 27 17 9 7 11 22 38 55 69 75 75 69 59 42 25 13 8 6 6 7 8 8 7 4 1 359 358 358 357 354 352 348 346 345 344 342 340 337 335 334 333 333 332 330 327 324 321 318 315 313 311 310 309 308 309 311 312 313 313 313 315
221 218 219 220 220 222 225 230 234 240 246 254 256 254 249 246 243 238 229 220 210 201 190 180 171 163 153 145 144 144 139 128 115 102 92 82 72 65 60 55 49 40 31 21 16 17 28 48 66 75 78 75 70 62 47 27 14 6 3 3 4 5 6 5 3 360 358 357 358 0 1 359 356 353 350 347 345 343 341 339 338 337 337 336 335 332 329 325 322 319 316 314 313 311 310 309 309 311 312 312 314 316 318
220 219 220 221 223 226 230 234 238 244 250 253 253 249 243 238 232 222 211 201 195 188 180 169 159 152 145 140 140 140 134 124 110 97 88 83 77 70 65 59 52 44 36 29 25 31 48 67 77 78 75 69 62 52 34 16 6 1 0 1 3 4 4 2 359 356 354 355 357 359 1 360 357 354 351 347 345 343 342 341 341 340 340 339 337 334 330 326 322 319 317 315 313 312 311 311 310 311 312 313 316 319 320
221 221 223 224 227 231 235 239 242 246 250 250 247 242 236 230 220 208 198 192 186 181 173 164 154 146 141 139 138 135 129 117 105 93 87 85 83 77 71 63 57 50 44 40 42 51 65 75 75 69 62 56 49 37 21 7 1 358 358 359 1 2 2 359 357 354 353 353 354 355 356 356 355 352 349 345 343 342 342 343 343 342 341 340 337 334 330 326 322 319 317 315 314 313 312 311 311 312 312 314 316 318 318
221 223 226 228 231 235 239 241 244 246 246 244 240 234 229 221 210 199 192 187 182 176 169 160 153 147 142 140 136 131 123 112 103 95 92 91 88 81 73 65 60 56 53 55 61 69 74 72 62 52 45 39 34 24 12 2 358 356 356 357 359 360 359 357 354 353 352 352 352 352 351 351 350 348 345 343 341 341 342 342 343 343 342 340 337 333 329 325 322 319 317 316 315 314 313 312 313 312 312 313 314 315 314
220 223 227 230 233 237 239 241 242 241 239 236 232 227 221 212 202 194 189 185 180 173 167 161 155 151 147 142 135 127 120 115 107 100 98 97 92 81 72 65 60 57 59 65 73 78 77 64 49 40 33 30 26 18 7 360 356 355 355 356 356 356 355 353 352 351 350 350 349 347 346 345 344 343 341 340 339 340 341 341 342 342 340 338 335 332 328 325 322 319 317 316 315 314 314 314 315 315 314 313 313 312 311
219 222 226 230 234 237 238 237 236 233 231 227 224 220 214 207 199 193 189 185 179 173 168 164 160 157 155 149 142 131 127 122 115 108 101 95 87 77 66 60 57 58 62 71 80 81 72 53 39 30 25 22 19 13 5 359 356 356 356 355 354 353 352 350 349 348 347 346 344 343 341 340 339 338 338 337 337 338 339 339 340 339 338 336 333 331 328 324 321 318 316 315 314 314 315 317 318 319 318 317 315 314 313
220 223 226 230 234 236 235 231 227 224 223 220 218 214 210 204 198 194 192 188 182 177 173 170 166 161 159 155 149 143 136 133 122 109 96 88 76 64 56 52 53 58 66 76 84 80 62 40 27 19 14 13 12 8 2 358 357 357 356 354 352 350 349 347 345 343 342 340 339 337 336 334 334 334 334 334 335 335 336 337 337 337 335 334 332 331 328 326 322 318 315 313 313 314 315 319 321 322 321 319 318 317 317
222 225 229 233 236 236 231 223 218 217 217 215 213 210 207 203 200 197 196 193 187 182 179 177 172 165 159 155 152 149 145 138 123 107 92 80 67 54 45 43 47 57 64 75 84 77 48 27 17 11 8 7 6 3 360 358 357 356 354 352 350 347 345 343 341 339 337 335 333 331 330 329 328 329 329 331 332 333 333 333 333 333 332 331 330 330 329 327 323 319 315 312 311 312 316 320 322 324 323 321 319 319 323
223 226 230 235 238 236 229 218 212 212 214 213 211 207 204 202 201 201 199 196 192 188 186 184 179 171 161 152 149 150 147 136 128 113 98 85 76 63 46 37 43 55 63 70 77 65 34 17 10 7 4 3 2 360 358 357 355 353 351 348 345 342 341 339 337 334 333 330 328 326 325 324 324 325 326 327 328 329 329 329 329 329 329 328 327 327 327 326 323 319 315 311 310 312 316 320 324 326 326 324 321 323 329
223 225 229 234 237 236 228 216 210 210 212 212 209 206 203 202 202 202 202 200 196 193 190 189 185 178 171 160 154 149 146 131 116 100 91 83 83 75 58 44 45 52 63 66 70 55 25 9 2 0 359 358 357 356 356 354 352 349 347 344 341 339 337 335 333 331 328 325 324 323 322 321 321 322 322 323 324 324 324 324 324 324 324 324 324 324 324 324 323 319 314 311 310 312 316 321 326 329 329 327 326 329 334
223 225 228 232 235 235 229 217 210 210 212 212 210 206 203 202 202 203 203 203 200 197 194 193 191 188 186 184 180 169 160 121 44 42 51 52 53 54 53 45 44 48 54 58 65 42 11 360 355 353 353 353 352 352 352 350 348 345 343 341 339 337 335 332 329 327 325 323 322 321 320 319 319 319 319 319 319 319 319 320 320 321 321 321 321 321 322 322 322 319 315 312 311 312 316 322 327 330 332 331 333 337 340
224 226 228 231 233 234 229 219 212 210 212 213 211 208 205 203 203 204 205 205 203 202 198 197 199 202 204 205 201 195 193 309 339 358 18 21 20 20 26 29 40 50 50 73 98 1 353 348 347 347 346 346 346 347 347 346 344 342 341 339 337 335 333 330 328 325 323 322 321 320 319 317 317 316 316 316 316 316 316 317 317 317 318 318 318 319 320 321 321 320 318 315 314 315 318 323 328 332 333 335 340 343 342
226 228 229 231 233 232 229 221 214 212 213 214 213 210 207 205 204 205 206 207 207 205 203 201 205 211 217 217 216 213 217 267 330 343 351 354 356 358 4 17 35 52 39 132 189 280 329 336 339 339 339 337 339 342 343 342 341 340 339 338 336 333 331 329 327 325 322 320 319 319 317 316 315 314 314 314 314 314 314 314 315 315 315 315 316 317 319 320 321 321 320 319 318 319 322 326 330 333 335 340 345 346 341
228 230 231 233 233 232 229 222 216 214 214 215 214 213 210 208 206 206 207 209 210 209 207 207 211 218 223 225 226 228 232 253 300 324 333 334 338 345 356 3 7 10 11 7 234 242 310 332 332 329 326 328 334 338 339 339 339 339 338 337 335 333 331 328 326 323 321 319 318 318 316 315 314 314 313 313 312 313 313 312 312 312 313 313 314 315 317 318 319 320 320 320 321 322 324 328 332 335 338 343 347 345 338
230 232 234 236 235 234 230 224 218 215 215 216 216 215 213 211 209 209 210 211 212 213 212 214 218 224 229 232 234 237 245 254 280 299 312 318 324 330 340 344 348 352 353 356 316 279 307 329 332 327 315 321 329 334 335 336 337 338 336 335 334 333 330 328 326 324 322 322 321 320 318 317 316 315 314 313 312 311 311 311 310 311 311 312 312 313 314 315 316 317 318 319 321 323 326 330 333 336 340 345 346 342 335
232 234 236 238 238 235 231 225 220 216 216 217 217 217 216 214 213 212 212 213 214 215 217 220 224 229 233 237 241 246 253 259 272 285 296 303 310 316 321 326 331 330 299 291 301 313 321 328 331 331 321 322 325 327 330 333 335 335 334 334 333 332 331 329 328 327 327 326 325 324 322 321 319 318 316 315 313 311 311 310 309 309 309 310 310 310 311 312 313 314 315 317 319 322 325 329 333 337 340 343 341 337 331
233 235 237 239 239 237 232 227 221 217 216 217 218 218 218 217 216 215 215 215 215 217 220 223 227 231 235 239 244 249 256 262 269 276 283 290 295 301 305 310 313 312 308 297 301 312 320 326 333 332 316 318 320 323 327 331 333 334 333 333 333 332 332 331 330 330 330 330 328 326 325 323 322 320 319 317 315 313 312 311 310 309 308 308 308 308 308 309 309 310 312 314 317 321 325 329 333 336 338 338 336 332 329
235 236 238 239 239 237 233 228 223 219 217 218 219 220 219 219 218 217 217 217 217 219 222 225 228 231 234 238 243 249 257 262 267 271 277 281 284 286 291 296 302 308 311 312 314 315 317 321 326 326 318 317 318 322 326 330 332 334 333 333 333 333 332 332 331 332 332 331 329 328 327 325 324 322 321 319 317 316 314 313 311 309 308 307 307 307 307 307 307 308 310 313 316 320 324 328 331 333 334 333 331 328 326
236 237 239 239 239 237 234 229 224 220 218 219 220 221 221 221 220 219 219 219 220 222 224 227 229 232 234 238 242 248 254 260 265 269 273 277 278 279 283 287 290 294 298 304 307 310 313 314 316 317 319 316 315 319 325 329 332 333 333 332 332 332 331 331 331 332 332 331 329 329 328 327 326 324 322 321 319 318 317 315 312 310 308 308 307 307 307 307 307 308 310 313 317 321 323 326 328 329 329 327 326 324 324
237 238 239 239 239 237 235 231 226 222 220 219 220 221 222 222 222 221 221 221 222 224 226 228 231 233 235 238 242 247 252 258 263 267 271 274 276 278 281 283 286 288 292 295 298 301 305 306 307 310 312 309 309 314 321 327 331 332 331 332 332 331 331 330 330 331 332 331 330 329 329 329 328 326 324 323 321 321 319 317 315 312 310 309 309 309 309 309 309 311 313 316 318 320 321 322 323 323 323 322 322 322 322
237 238 239 239 239 238 237 234 229 224 221 220 221 222 223 224 224 223 223 224 225 226 228 229 231 234 236 239 242 247 251 256 261 265 270 274 276 279 282 283 284 286 290 292 294 296 298 300 302 303 305 308 312 316 321 327 330 331 331 330 330 329 329 328 328 330 331 331 330 330 330 330 329 328 326 325 324 323 322 320 318 315 313 312 312 312 312 312 313 315 317 318 318 318 318 318 318 318 318 319 319 320 321